Regional Weather Roundup
Issued by NWS Jackson, KY

Home | Current Version | Previous Version | Graphics & Text | Print | Product List | Glossary On
Versions: 1 2 3 4 5 6 7 8 9 10 11 12 13 14 15 16 17 18 19 20 21 22 23 24 25 26 27
000
ASUS43 KJKL 010610
RWRJKL

EAST KENTUCKY HOURLY WEATHER ROUNDUP
NATIONAL WEATHER SERVICE JACKSON KY
200 AM EDT SUN MAY 01 2016

NOTE: "FAIR" INDICATES FEW OR NO CLOUDS BELOW 12,000 FEET WITH
NO SIGNIFICANT WEATHER AND/OR OBSTRUCTIONS TO VISIBILITY.

* THESE REPORTS ARE NOT UNDER NWS QUALITY CONTROL AND MAY NOT
  REPORT WEATHER SUCH AS PRECIPITATION AND FOG.

KYZ079-080-083-085-087-088-110-112-115-119-120-010700
...EASTERN KENTUCKY...

CITY           SKY/WX    TMP DP  RH WIND       PRES   REMARKS
JACKSON        RAIN      60  58  92 VRB3      29.98F FOG
6HR MIN TEMP:  60; 6HR MAX TEMP:  61; 6HR PCP:  1.27;

LONDON         LGT RAIN  62  60  93 SE6       29.95F
6HR MIN TEMP:  62; 6HR MAX TEMP:  63;

SOMERSET*      CLOUDY    61  61 100 CALM      29.95F
MONTICELLO*    CLOUDY    64  62  93 VRB6      29.95F THUNDER
6HR MIN TEMP:  64; 6HR MAX TEMP:  66; 6HR PCP:  0.44;

WILLIAMSBURG*  CLOUDY    59  59 100 CALM      29.95F
MIDDLESBORO*   CLOUDY    61  61 100 W3        29.98F
6HR MIN TEMP:  61; 6HR MAX TEMP:  64; 6HR PCP:  0.31;

HARLAN APT*    CLOUDY    61  59  94 N5        29.98F
HAZARD APT*    CLOUDY    61  61 100 NW8       29.99  FOG
BLACK MTN*       N/A     55  55 100 S1          N/A
PIKE CO APT*   RAIN      60  60 100 SE3       29.99F
BIG SANDY APT* HVY RAIN  61  61 100 SE6       29.98F
6HR MIN TEMP:  61; 6HR MAX TEMP:  63;

MOREHEAD APT*  LGT RAIN  61  61 100 S9        29.98R
$$

KYZ035-036-041-042-044-050-067-078-099-010700
...CENTRAL KENTUCKY...

CITY           SKY/WX    TMP DP  RH WIND       PRES   REMARKS
MT STERLING*   HVY RAIN  61  61 100 CALM      29.97S
FLEMING/MASON* LGT RAIN  61  60  97 S8        29.95S
DANVILLE*      CLOUDY    61  61 100 S5        29.94F
RICHMOND*      CLOUDY    63  61  94 SE3       29.94F
LEXINGTON      LGT RAIN  63  61  93 SE13      29.94F
6HR MIN TEMP:  62; 6HR MAX TEMP:  63; 6HR PCP:  0.16;

FRANKFORT      MOCLDY    63  60  90 SE7       29.91S
6HR MIN TEMP:  63; 6HR MAX TEMP:  64; 6HR PCP:  0.17;

LOUISVILLE     CLOUDY    64  62  93 SE5       29.90S
6HR MIN TEMP:  64; 6HR MAX TEMP:  67; 6HR PCP:  0.07;

LEBANON*         N/A     63  63 100 E5        29.92F
BOWLING GREEN  CLOUDY    67  65  93 S5        29.90R
6HR MIN TEMP:  66; 6HR MAX TEMP:  69; 6HR PCP:  0.03;

$$

KYZ091>093-OHZ055-061-077-WVZ005-015-034-035-042-010700
...SOUTHERN OHIO/WEST VIRGINIA...

CITY           SKY/WX    TMP DP  RH WIND       PRES   REMARKS
COVINGTON      LGT RAIN  62  60  93 S9        29.91R
COLUMBUS       CLOUDY    56  56 100 S5        29.90S FOG
DAYTON         CLOUDY    59  58  96 S10       29.90S FOG
WILMINGTON     LGT RAIN  59  58  96 S10       29.89F
HUNTINGTON     LGT RAIN  62  60  93 VRB5      29.96F
CHARLESTON     HVY RAIN  61  59  93 CALM      30.00F FOG
PINEVILLE*     LGT RAIN  58  55  88 MISG      30.09F
BECKLEY        LGT RAIN  54  52  93 SE10      30.07F
$$

VAZ002-007-008-TNZ017-027-036-066-071-010700
...SOUTHWEST VIRGINIA/EAST TENNESSEE...

CITY           SKY/WX    TMP DP  RH WIND       PRES   REMARKS
WISE*          CLOUDY    59  59 100 S8        30.05F
BRISTOL        CLOUDY    62  60  93 CALM      30.02F
MORRISTOWN*    CLOUDY    63  63 100 CALM      29.97F
SEVIERVILLE*   CLEAR     61  61 100 CALM      29.97S
KNOXVILLE      CLOUDY    63  62  97 N5        29.96S
OAK RIDGE      LGT RAIN  64  62  93 VRB3      29.98S
CROSSVILLE     CLOUDY    68  61  78 VRB7      29.97F
NASHVILLE      CLOUDY    66  64  93 CALM      29.91S FOG
$$

...KEY TO REMARKS...
VSB - VISIBILITY IN MILES
WCI - WIND CHILL INDEX
HX  - HEAT INDEX

$$




USA.gov is the U.S. government's official web portal to all federal, state and local government web resources and services.